Temperature
15 14 14 14 14 13 13 13 13 13 13 12 12 12 12 12 11 11 11 11 11 11 10 10 10 10 10 9 10 10 10 10 10 10 9 9 9 9 9 9 9 9 9
15 15 14 14 13 13 13 13 13 12 12 12 12 12 12 11 11 11 10 11 11 10 10 10 10 10 9 9 9 9 9 9 9 9 9 9 9 9 8 8 8 8 8
15 15 14 14 13 13 13 13 12 12 12 12 12 12 12 11 11 11 10 10 10 10 10 10 10 10 9 9 9 9 9 9 9 8 8 8 8 7 7 7 7 7 7
15 14 14 14 13 13 13 13 12 12 12 12 12 12 11 11 11 11 11 10 10 10 10 10 9 9 9 9 9 8 8 8 8 8 8 7 7 6 6 5 5 5 5
15 15 14 14 13 13 13 13 12 12 12 12 11 11 11 11 11 11 11 11 10 10 9 10 9 9 9 9 8 8 8 7 7 7 7 7 6 5 5 4 4 4 4
15 15 14 14 13 13 13 12 12 12 12 11 11 11 11 11 11 11 11 11 11 10 10 9 9 9 9 8 8 8 7 7 7 7 6 6 5 5 4 4 4 4 4
16 15 15 14 14 14 13 13 12 12 12 11 11 11 10 11 11 11 11 10 10 10 10 9 9 8 8 8 7 7 7 7 6 6 6 5 4 4 3 3 3 3 3
16 16 15 15 14 14 13 13 12 12 12 11 11 10 10 10 11 11 11 10 10 10 10 9 9 8 8 7 7 7 6 6 6 6 5 4 4 3 3 2 2 2 2
16 16 15 15 14 14 14 13 13 12 12 12 11 10 10 10 10 11 11 11 10 10 9 9 8 8 7 7 6 6 6 5 5 5 4 4 3 2 2 2 2 2 2
16 15 15 14 14 14 13 13 13 13 12 11 11 11 11 11 11 11 11 11 10 9 9 8 8 7 7 6 6 5 5 5 5 4 4 3 2 2 1 1 1 1 1
15 15 14 14 13 13 13 13 13 12 12 11 12 11 11 10 10 10 10 10 10 9 8 8 7 7 6 5 5 4 4 4 4 3 3 2 2 1 0 0 0 0 0
14 14 14 13 13 13 13 13 12 12 12 11 11 11 11 10 10 10 9 9 9 9 8 7 6 6 5 4 4 4 3 3 3 3 2 2 1 0 -0 -0 -0 -0 -1
13 13 13 13 13 12 12 12 12 12 11 11 11 11 11 10 10 10 9 8 8 7 7 6 5 5 4 3 3 3 2 2 2 2 2 1 0 -0 -0 -0 -0 -1 -1
12 13 13 12 12 12 11 11 11 11 11 11 10 10 10 10 9 9 8 7 6 5 5 5 5 4 3 3 2 2 1 1 1 1 1 0 0 0 -0 -0 -1 -1 -2
12 12 12 12 11 11 10 10 10 10 10 10 10 9 9 9 8 8 7 6 5 5 4 4 3 3 2 2 1 1 -0 -0 0 -0 -0 -0 -1 -1 -1 -1 -2 -2 -2
11 11 11 11 10 10 10 9 9 9 9 9 9 8 8 7 7 6 5 5 4 4 3 3 2 2 1 1 0 -0 -1 -1 -1 -1 -1 -1 -2 -2 -2 -3 -3 -3 -4
10 10 10 10 10 9 9 9 9 9 9 8 8 7 7 6 5 4 4 3 3 3 2 1 1 0 0 -0 -1 -2 -2 -2 -2 -2 -2 -2 -2 -3 -3 -4 -4 -4 -4
9 9 9 9 8 8 8 8 8 8 7 7 6 6 5 4 3 3 2 2 2 1 1 -0 -1 -1 -1 -2 -2 -2 -2 -2 -2 -2 -3 -3 -3 -3 -4 -4 -4 -5 -5
7 7 7 7 7 7 7 7 6 6 5 5 4 3 3 2 2 2 1 1 1 0 -1 -1 -2 -2 -2 -3 -3 -3 -3 -3 -3 -3 -3 -3 -3 -4 -4 -4 -4 -5 -5
6 6 6 6 6 5 5 5 4 4 3 3 2 2 1 1 1 1 0 -0 -1 -1 -2 -3 -3 -4 -4 -4 -5 -5 -5 -5 -4 -4 -4 -4 -4 -4 -4 -4 -4 -4 -4
4 4 4 4 4 3 3 3 3 2 2 1 1 1 0 0 -0 -0 -1 -1 -2 -3 -4 -4 -5 -5 -5 -6 -6 -6 -6 -6 -5 -4 -5 -5 -5 -5 -4 -4 -4 -4 -5
2 2 2 1 1 1 1 1 1 1 1 0 0 -0 -1 -1 -1 -1 -2 -2 -3 -4 -5 -5 -6 -6 -6 -7 -7 -7 -7 -7 -7 -6 -7 -6 -5 -5 -5 -5 -4 -4 -5
0 0 0 -0 -0 -0 -1 -0 -0 -0 -1 -1 -1 -1 -2 -2 -2 -3 -3 -3 -4 -4 -5 -6 -6 -7 -7 -7 -7 -7 -8 -8 -7 -7 -7 -7 -6 -6 -5 -5 -4 -4 -5
-1 -1 -1 -1 -1 -1 -1 -1 -1 -1 -2 -2 -2 -3 -3 -3 -3 -3 -4 -4 -5 -5 -6 -6 -7 -7 -7 -7 -8 -8 -8 -8 -7 -7 -8 -8 -7 -6 -6 -5 -5 -4 -5
-1 -1 -1 -1 -2 -2 -2 -2 -2 -2 -3 -3 -3 -3 -4 -4 -4 -5 -5 -5 -6 -6 -6 -6 -6 -6 -6 -7 -7 -7 -7 -8 -8 -7 -7 -8 -7 -8 -7 -5 -5 -5 -5
-1 -1 -2 -2 -2 -3 -3 -3 -3 -3 -4 -4 -4 -4 -4 -5 -5 -6 -6 -6 -7 -7 -7 -6 -6 -6 -6 -6 -7 -7 -7 -8 -8 -8 -7 -8 -8 -8 -8 -6 -6 -6 -5
Wind_Speed
10 10 9 9 10 9 9 8 8 8 7 7 6 6 6 6 6 6 7 11 11 11 9 8 7 6 6 6 6 6 6 6 6 7 7 7 7 8 8 8 9 9 10
12 10 10 10 10 10 10 9 9 8 7 7 7 7 7 7 7 7 7 11 11 11 10 8 7 6 5 5 5 5 5 5 5 5 6 6 7 7 7 8 8 9 10
15 13 11 10 11 12 12 10 10 8 7 6 7 7 7 7 7 8 8 9 10 11 10 9 8 6 5 4 4 4 4 4 4 5 5 6 6 7 7 8 9 10 10
18 15 11 11 13 13 11 9 9 8 8 7 7 6 7 7 9 9 9 9 9 10 10 10 9 7 5 4 3 2 3 3 4 5 6 6 7 7 8 9 10 11 11
20 17 13 13 14 12 11 10 10 10 9 8 7 6 6 7 8 9 10 11 10 10 10 10 10 8 6 4 2 1 2 3 4 5 6 7 8 9 10 11 12 12 13
20 19 14 15 15 12 12 12 12 11 9 8 7 6 6 7 7 9 10 11 11 11 11 11 10 8 7 5 2 0 2 4 5 6 8 9 10 11 12 13 14 15 15
19 18 13 15 14 14 15 15 13 12 10 8 6 5 6 7 8 8 9 10 11 12 12 12 10 9 8 6 3 1 2 4 6 8 9 10 12 13 14 15 16 17 17
20 17 17 15 15 14 16 17 15 11 9 10 8 5 5 7 8 10 9 9 11 12 12 12 11 10 8 6 4 2 1 3 6 8 10 12 13 15 16 17 18 19 19
20 18 18 16 15 15 15 18 18 17 13 12 11 8 6 9 5 7 10 10 10 9 10 11 11 10 8 6 5 3 1 3 5 8 11 13 15 17 18 19 20 21 21
18 19 18 17 16 15 16 17 18 17 16 12 10 10 7 4 5 5 6 8 9 10 10 8 10 9 8 6 4 3 2 2 6 9 12 15 17 19 20 21 22 22 23
15 16 16 15 16 15 17 17 17 18 16 15 11 8 8 4 4 5 4 5 6 6 6 7 7 8 8 7 6 4 2 3 7 10 14 17 19 20 21 22 23 23 23
11 15 14 15 15 15 16 16 16 18 16 15 12 9 8 6 7 7 5 3 4 3 4 3 5 6 6 7 6 4 2 5 9 12 16 18 20 21 22 22 23 23 24
11 12 12 14 13 14 14 13 13 14 15 15 13 10 8 6 3 4 4 3 3 2 3 3 3 5 6 6 6 4 5 7 11 14 17 19 20 21 22 23 24 24 25
11 11 11 12 12 11 10 10 9 10 10 11 10 9 6 4 4 4 5 5 4 2 3 4 2 5 6 6 5 5 7 10 13 16 18 19 20 21 22 23 24 24 25
8 9 9 9 9 9 9 9 7 8 8 8 7 7 6 4 4 4 4 4 5 5 5 4 3 4 6 6 6 7 10 12 15 18 19 20 21 22 23 24 24 25 25
6 6 6 6 6 6 7 7 7 8 9 8 7 9 8 6 5 5 5 4 3 3 3 2 3 3 5 6 8 10 12 14 17 18 19 20 21 22 24 24 24 25 25
3 2 2 3 4 6 7 8 9 10 11 10 9 10 10 9 7 6 5 4 4 3 2 1 2 3 4 6 8 11 12 13 14 17 19 21 22 23 23 23 24 24 25
3 2 3 5 7 7 8 10 11 11 12 12 11 11 10 8 8 6 5 4 3 2 2 3 3 4 6 7 9 10 11 12 14 17 20 21 22 22 22 22 23 23 24
8 8 8 8 9 9 10 10 11 11 11 11 11 11 10 9 7 5 4 4 3 2 2 3 4 4 6 6 8 9 11 11 14 15 18 19 20 20 21 23 24 25 25
10 10 11 11 11 11 11 12 12 13 12 11 10 9 8 7 6 5 4 3 3 3 4 4 5 5 6 7 7 8 9 9 10 13 16 17 18 19 22 23 24 24 25
12 12 12 12 12 11 11 12 12 12 12 11 10 8 7 7 5 3 2 2 3 3 4 4 5 6 6 6 7 8 10 11 12 11 10 10 12 14 17 19 21 21 23
13 13 13 13 12 11 17 17 14 11 10 10 9 7 6 5 4 2 0 2 3 4 4 5 6 7 8 8 8 8 10 11 10 6 10 12 12 13 13 15 19 23 25
12 13 13 13 13 15 18 17 16 10 9 8 7 5 4 3 2 0 1 2 3 4 6 7 8 9 9 9 9 11 11 12 13 12 13 14 13 14 13 16 22 24 26
10 10 11 11 11 13 16 16 14 9 8 7 5 3 2 1 1 3 3 3 4 5 6 7 8 9 9 9 10 11 12 13 14 12 11 13 12 13 13 15 21 24 25
10 9 9 10 10 10 12 12 9 6 5 5 3 2 2 2 3 5 5 5 6 6 6 9 12 13 15 16 13 9 10 10 11 11 9 7 10 12 13 14 15 19 21
9 9 9 9 8 8 9 9 6 3 3 2 2 2 3 4 6 6 5 6 7 7 7 8 9 10 11 11 11 9 8 8 8 7 6 6 9 9 8 8 9 12 16
Wind_Direction
203 202 205 203 206 205 202 206 206 199 199 195 196 197 195 196 192 182 158 151 148 147 146 143 136 127 115 102 89 78 66 57 49 41 35 29 24 19 13 10 7 3 359
211 207 211 209 211 210 211 211 212 206 204 201 200 201 202 199 199 194 176 157 151 152 157 156 148 138 126 108 94 81 63 51 40 30 20 13 8 3 358 356 352 348 344
215 212 215 213 212 211 211 213 212 211 206 202 204 203 203 204 201 197 188 178 167 161 165 165 158 149 137 119 97 80 62 42 24 9 358 351 349 344 341 338 336 333 332
218 217 218 217 213 210 208 207 206 206 206 207 206 200 202 202 205 201 194 191 184 178 173 170 166 160 151 136 104 70 48 22 1 346 338 333 329 326 324 322 322 321 320
218 218 220 219 213 210 210 207 208 210 210 208 207 202 205 204 203 203 203 198 193 190 184 167 166 162 162 158 132 51 9 350 337 328 322 320 317 315 313 312 312 311 311
220 219 221 220 214 211 211 208 207 209 214 202 196 202 209 211 209 208 208 201 196 195 195 185 179 170 168 168 161 1 334 327 322 317 313 312 309 307 306 305 305 305 305
222 219 221 220 215 214 212 210 205 204 203 187 183 202 215 221 220 213 211 206 201 198 198 196 197 190 181 171 170 220 310 311 312 311 308 307 305 303 302 302 301 301 300
224 220 220 219 215 216 215 211 204 204 197 189 194 197 216 215 221 217 211 212 208 199 203 202 201 200 199 197 168 171 287 306 308 307 307 307 306 305 302 301 300 299 299
227 223 223 222 218 215 216 212 206 205 202 199 204 199 205 223 196 195 212 211 209 205 204 202 203 200 200 201 194 177 208 302 306 307 308 308 306 304 302 299 298 297 297
230 228 226 225 222 218 219 215 211 213 210 202 207 224 236 243 194 184 194 209 211 211 206 198 195 192 193 191 185 172 192 291 305 309 309 307 304 302 300 298 297 296 296
234 230 228 227 226 222 222 219 213 214 214 209 200 199 212 227 233 210 191 182 198 211 209 199 190 185 183 182 184 178 205 290 307 309 307 305 303 301 299 298 297 297 296
240 235 230 229 229 226 225 222 216 214 215 216 206 197 192 193 203 208 209 179 178 172 190 197 191 180 176 177 177 170 229 292 305 305 304 303 301 301 300 299 297 295 294
245 239 232 233 232 229 226 221 217 214 213 212 208 205 206 201 169 182 178 151 145 140 170 190 192 178 178 181 179 192 245 283 298 301 301 300 300 301 299 297 294 292 291
255 251 240 236 234 229 221 213 210 208 206 206 204 194 184 172 155 154 156 149 148 160 185 184 170 187 184 189 197 235 266 279 290 295 296 298 298 298 295 293 292 291 290
264 256 246 236 228 218 208 197 196 189 181 182 174 161 148 134 125 122 126 144 156 176 200 182 179 189 195 205 223 258 274 279 287 291 292 294 294 293 292 291 289 288 287
269 256 245 229 210 192 181 171 160 155 153 149 144 139 128 121 109 102 102 93 97 143 175 166 180 176 197 230 251 267 276 281 282 285 287 289 291 291 289 288 287 286 286
294 261 217 182 161 151 148 144 142 141 137 132 132 130 123 121 114 103 97 96 90 97 157 183 195 206 234 256 266 270 276 281 283 283 286 289 290 289 288 287 286 285 284
44 67 104 116 118 122 127 131 131 132 131 129 127 122 119 115 107 106 110 111 111 117 173 226 225 230 248 263 274 278 281 282 282 285 288 289 289 288 287 286 285 284 284
66 73 84 93 99 104 108 112 115 115 113 115 117 118 119 119 117 117 118 122 131 158 201 235 249 250 259 265 276 279 282 283 284 286 288 288 288 287 286 286 286 285 285
70 74 78 83 88 92 96 100 102 103 101 99 98 101 105 112 120 128 133 146 166 198 219 239 257 265 269 274 277 287 293 294 294 293 289 287 286 286 285 284 284 283 283
70 74 79 81 83 86 91 95 96 98 98 95 89 88 92 102 117 130 148 179 204 226 242 255 265 274 277 284 288 296 296 300 298 292 289 289 290 288 288 286 283 281 281
71 74 76 77 77 83 93 94 96 93 94 96 96 93 95 92 95 93 150 242 246 254 261 268 275 278 283 289 295 296 297 299 301 297 300 298 296 291 289 286 285 286 286
74 77 78 80 82 86 89 90 90 90 90 91 94 98 99 92 75 316 283 280 279 282 277 278 278 279 287 293 295 293 290 289 287 291 297 293 293 290 290 288 287 287 287
75 75 77 82 86 89 90 90 90 89 92 93 92 89 81 54 360 311 296 292 286 279 278 276 276 281 283 287 286 284 286 286 285 284 282 286 291 292 295 292 289 286 286
76 75 75 77 82 87 91 93 91 92 92 89 78 54 13 340 325 306 298 295 294 290 280 277 280 282 285 286 287 286 283 284 289 293 292 284 292 300 296 290 286 285 284
81 80 76 74 80 86 89 90 79 74 73 63 41 14 356 329 322 319 309 298 296 303 303 294 286 283 283 281 277 266 269 273 280 290 289 285 293 308 300 284 287 291 290
Height
1549 1551 1552 1553 1554 1555 1555 1556 1557 1557 1558 1558 1559 1559 1560 1560 1560 1560 1559 1559 1559 1558 1558 1558 1557 1557 1556 1556 1555 1554 1554 1553 1552 1552 1551 1550 1549 1549 1548 1547 1546 1545 1545
1546 1547 1549 1549 1550 1551 1553 1553 1554 1555 1555 1556 1556 1557 1557 1558 1558 1558 1558 1557 1557 1557 1556 1556 1556 1555 1555 1555 1554 1553 1553 1552 1551 1551 1550 1549 1548 1547 1546 1545 1544 1543 1543
1542 1543 1544 1545 1546 1548 1549 1550 1551 1552 1552 1553 1553 1554 1554 1555 1555 1556 1556 1555 1554 1554 1554 1554 1554 1554 1553 1553 1553 1552 1551 1550 1550 1549 1548 1547 1546 1545 1544 1543 1542 1541 1541
1538 1539 1540 1541 1542 1543 1544 1545 1547 1548 1548 1549 1550 1551 1551 1552 1552 1552 1552 1552 1552 1552 1552 1552 1552 1552 1551 1551 1551 1550 1549 1549 1548 1547 1546 1545 1544 1543 1542 1541 1540 1539 1538
1533 1534 1535 1536 1537 1538 1540 1541 1542 1544 1545 1545 1546 1547 1548 1548 1548 1549 1549 1549 1549 1549 1549 1548 1549 1549 1549 1549 1549 1548 1547 1546 1546 1545 1544 1542 1541 1541 1540 1539 1538 1537 1536
1527 1529 1529 1531 1532 1533 1534 1535 1537 1538 1540 1541 1542 1543 1543 1544 1544 1544 1545 1544 1545 1545 1545 1545 1545 1545 1545 1545 1545 1545 1545 1544 1543 1542 1541 1540 1538 1537 1536 1536 1535 1534 1532
1521 1522 1523 1525 1525 1526 1527 1529 1531 1533 1534 1536 1538 1538 1538 1539 1539 1539 1540 1540 1540 1540 1541 1541 1541 1541 1541 1541 1541 1541 1541 1540 1539 1538 1537 1536 1535 1534 1533 1532 1531 1530 1528
1515 1516 1517 1518 1518 1520 1521 1523 1524 1526 1527 1529 1532 1533 1534 1534 1532 1533 1533 1534 1535 1535 1535 1536 1537 1537 1537 1537 1537 1537 1536 1536 1535 1534 1533 1532 1531 1529 1528 1527 1526 1525 1523
1507 1508 1509 1510 1511 1512 1513 1515 1517 1518 1520 1522 1525 1527 1527 1527 1526 1526 1526 1527 1528 1529 1529 1530 1531 1531 1532 1532 1532 1531 1531 1531 1530 1529 1528 1527 1525 1524 1523 1522 1520 1519 1517
1500 1500 1501 1503 1504 1505 1506 1507 1509 1511 1513 1514 1516 1518 1520 1520 1521 1520 1520 1521 1522 1522 1523 1524 1525 1525 1526 1526 1526 1526 1525 1525 1524 1523 1522 1521 1519 1518 1516 1515 1514 1512 1511
1492 1493 1494 1495 1496 1497 1498 1500 1501 1503 1504 1506 1507 1509 1511 1512 1513 1515 1514 1514 1515 1516 1517 1518 1518 1519 1520 1520 1520 1520 1519 1519 1518 1516 1515 1514 1512 1511 1509 1508 1506 1504 1502
1485 1485 1486 1487 1488 1489 1490 1491 1493 1494 1496 1498 1499 1500 1502 1503 1504 1507 1508 1507 1508 1509 1510 1511 1512 1513 1514 1514 1514 1513 1513 1512 1511 1510 1508 1506 1505 1503 1501 1499 1497 1495 1494
1477 1478 1478 1479 1480 1481 1482 1483 1485 1486 1488 1490 1491 1492 1494 1496 1497 1499 1500 1501 1501 1502 1504 1505 1505 1506 1508 1508 1507 1507 1506 1505 1504 1502 1500 1498 1496 1494 1492 1489 1488 1486 1484
1470 1470 1471 1471 1472 1473 1474 1475 1476 1478 1480 1482 1483 1485 1486 1488 1489 1490 1492 1494 1495 1496 1497 1498 1499 1500 1501 1502 1501 1500 1499 1498 1496 1494 1492 1490 1488 1485 1483 1481 1478 1477 1475
1463 1463 1464 1464 1464 1465 1466 1467 1469 1471 1472 1474 1476 1477 1479 1480 1482 1483 1485 1487 1490 1490 1491 1492 1493 1494 1495 1495 1494 1493 1492 1490 1488 1486 1484 1481 1479 1476 1474 1472 1470 1468 1466
1457 1457 1457 1457 1457 1458 1459 1460 1462 1464 1466 1467 1469 1470 1472 1474 1476 1477 1479 1481 1483 1485 1486 1487 1487 1488 1489 1489 1488 1487 1485 1483 1480 1478 1476 1473 1470 1468 1465 1463 1461 1459 1457
1451 1450 1450 1451 1451 1452 1453 1454 1456 1457 1459 1461 1463 1465 1466 1469 1471 1472 1474 1477 1479 1480 1482 1482 1483 1483 1483 1483 1482 1480 1478 1475 1473 1471 1468 1465 1462 1459 1457 1455 1453 1451 1449
1446 1445 1445 1445 1446 1447 1448 1449 1451 1452 1454 1456 1458 1460 1462 1465 1467 1469 1472 1473 1475 1476 1478 1478 1478 1478 1478 1477 1475 1474 1471 1469 1466 1464 1461 1458 1455 1452 1450 1448 1446 1443 1441
1443 1442 1442 1442 1443 1443 1444 1446 1447 1449 1451 1453 1455 1458 1461 1463 1466 1467 1469 1470 1471 1472 1473 1473 1473 1472 1472 1471 1469 1467 1465 1462 1460 1457 1454 1451 1448 1446 1443 1441 1438 1436 1433
1441 1441 1441 1441 1441 1442 1443 1445 1446 1448 1450 1453 1455 1458 1460 1462 1464 1465 1466 1467 1468 1468 1469 1468 1468 1468 1467 1466 1464 1462 1459 1457 1454 1451 1448 1445 1442 1439 1437 1434 1431 1428 1425
1442 1441 1441 1442 1442 1443 1444 1446 1447 1449 1451 1453 1456 1458 1460 1461 1462 1463 1464 1464 1464 1464 1464 1464 1464 1463 1463 1462 1460 1457 1455 1451 1448 1445 1442 1439 1436 1432 1430 1426 1423 1420 1417
1444 1444 1444 1444 1445 1446 1447 1449 1450 1452 1453 1455 1456 1458 1459 1460 1460 1460 1461 1461 1461 1461 1460 1460 1459 1459 1458 1458 1455 1453 1450 1447 1443 1441 1437 1434 1431 1426 1423 1420 1416 1413 1410
1448 1448 1448 1448 1449 1450 1451 1452 1453 1455 1455 1456 1457 1457 1457 1458 1458 1458 1458 1457 1457 1456 1456 1456 1455 1454 1454 1452 1450 1448 1446 1443 1439 1436 1432 1426 1424 1420 1417 1412 1409 1406 1402
1452 1452 1452 1453 1453 1454 1454 1455 1456 1456 1456 1456 1456 1456 1456 1456 1456 1456 1455 1454 1454 1453 1452 1451 1450 1449 1448 1447 1445 1443 1441 1437 1433 1431 1428 1422 1418 1414 1409 1405 1402 1398 1394
1456 1456 1456 1457 1457 1457 1457 1457 1458 1457 1457 1456 1456 1456 1455 1455 1454 1453 1452 1451 1451 1450 1448 1447 1446 1445 1443 1442 1440 1438 1436 1432 1428 1425 1423 1418 1411 1407 1401 1397 1393 1389 1386
1460 1460 1460 1460 1460 1459 1459 1459 1458 1458 1457 1456 1456 1455 1453 1453 1451 1450 1450 1449 1448 1447 1446 1444 1443 1441 1440 1438 1436 1434 1431 1428 1424 1419 1416 1412 1406 1401 1392 1387 1385 1382 1377